Location: C.E.K. Mees Observatory
(42.7003°N, 77.4088°W)
Time: 07:29:35
(UTC-05:00)

Vanguard 2 Rocket - All Passes

Search period start: 12 December 2017 00:00
Search period end: 22 December 2017 00:00
Orbit: 555 x 3326 km, 32.9° (Epoch: 11 December)

Date Brightness Start Highest point End Pass type
(mag) Time Alt. Az. Time Alt. Az. Time Alt. Az.
12 Dec - 02:15:44 10° W 02:32:04 33° SW 02:45:51 10° SSE visible
12 Dec - 18:31:05 10° SSW 18:41:41 36° SE 18:57:16 10° E visible
12 Dec - 20:42:33 10° WSW 20:56:53 59° SSE 21:16:30 10° E visible
12 Dec - 22:56:51 10° W 23:14:17 60° S 23:33:29 10° ESE visible
13 Dec - 01:13:33 10° W 01:31:10 41° SSW 01:47:05 10° SSE visible
13 Dec - 03:35:55 10° W 03:45:32 16° SW 03:54:05 10° SSW visible
13 Dec - 17:33:23 10° S 17:41:55 26° SE 17:54:04 10° E visible
13 Dec - 19:43:19 10° SW 19:55:49 52° SSE 20:14:20 10° E visible
13 Dec - 21:56:34 10° WSW 22:12:31 62° S 22:32:21 10° ESE visible
14 Dec - 00:12:07 10° W 00:29:51 49° SSW 00:47:30 10° SE visible
14 Dec - 02:31:18 10° W 02:45:19 24° SW 02:57:44 10° S visible
14 Dec - 16:36:58 10° SSE 16:42:38 16° SE 16:49:52 10° E daylight
14 Dec - 18:44:34 10° SW 18:55:17 44° SSE 19:11:50 10° E visible
14 Dec - 20:56:46 10° WSW 21:10:58 61° S 21:30:42 10° ESE visible
14 Dec - 23:11:17 10° W 23:28:16 55° SSW 23:47:14 10° SE visible
15 Dec - 01:28:32 10° W 01:44:38 33° SW 01:59:40 10° SSE visible
15 Dec - 17:46:24 10° SSW 17:55:20 33° SE 18:09:03 10° E visible
15 Dec - 19:57:23 10° WSW 20:09:48 57° SSE 20:28:37 10° E visible
15 Dec - 22:10:58 10° W 22:26:38 59° S 22:46:17 10° ESE visible
16 Dec - 00:26:49 10° W 00:43:33 40° SSW 01:00:33 10° SSE visible
16 Dec - 02:48:20 10° W 02:58:29 16° SW 03:07:58 10° SSW visible
16 Dec - 16:48:57 10° S 16:55:55 23° SE 17:05:53 10° E visible
16 Dec - 18:58:27 10° SW 19:09:08 50° SSE 19:26:13 10° E visible
16 Dec - 21:11:06 10° WSW 21:25:08 60° S 21:44:46 10° ESE visible
16 Dec - 23:25:51 10° W 23:42:11 47° SSW 00:00:36 10° SE visible
17 Dec - 01:44:12 10° W 01:57:59 24° SW 02:11:18 10° S visible
17 Dec - 15:53:08 10° SSE 15:56:55 13° SE 16:01:30 10° ESE daylight
17 Dec - 17:59:58 10° SW 18:09:00 41° SSE 18:23:38 10° E visible
17 Dec - 20:11:39 10° WSW 20:23:56 59° S 20:42:46 10° ESE visible
17 Dec - 22:25:28 10° W 22:40:42 53° SSW 22:59:56 10° SE visible
18 Dec - 00:41:54 10° W 00:57:08 32° SW 01:12:55 10° SSE visible
18 Dec - 17:02:00 10° SSW 17:09:25 30° SE 17:20:55 10° E visible
18 Dec - 19:12:35 10° WSW 19:23:10 55° SSE 19:40:28 10° E visible
18 Dec - 21:25:33 10° W 21:39:18 57° S 21:58:37 10° ESE visible
18 Dec - 23:40:38 10° W 23:55:59 39° SSW 00:13:29 10° SSE visible
19 Dec - 02:01:25 10° WSW 02:11:19 16° SW 02:21:09 10° SSW visible
19 Dec - 16:04:48 10° S 16:10:18 20° SE 16:17:55 10° E daylight
19 Dec - 18:13:54 10° SW 18:22:54 47° SSE 18:38:00 10° E visible
19 Dec - 20:26:03 10° WSW 20:38:08 58° S 20:56:47 10° ESE visible
19 Dec - 22:40:05 10° W 22:54:41 45° SSW 23:13:10 10° SE visible
20 Dec - 00:57:42 10° W 01:10:40 23° SW 01:24:15 10° S night (unlit)
20 Dec - 15:10:56 10° SE 15:11:31 10° SE 15:12:06 10° SE daylight
20 Dec - 17:15:37 10° SW 17:23:09 38° SSE 17:35:33 10° E visible
20 Dec - 19:26:54 10° WSW 19:37:21 56° S 19:54:36 10° ESE visible
20 Dec - 21:40:06 10° W 21:53:26 50° SSW 22:12:09 10° SE visible
20 Dec - 23:55:49 10° W 00:09:44 30° SW 00:25:35 10° SSE visible
21 Dec - 16:17:50 10° SSW 16:23:52 27° SE 16:33:05 10° E daylight
21 Dec - 18:28:06 10° WSW 18:37:01 52° SSE 18:52:16 10° E visible
21 Dec - 20:40:32 10° W 20:52:22 54° S 21:10:34 10° ESE visible
21 Dec - 22:54:58 10° W 23:08:38 37° SSW 23:25:50 10° SSE visible
